Hourly Data Report for August 14, 2017

QUALICUM BEACH AIRPORT
BRITISH COLUMBIA

49°20'14.000" N
124°23'38.000" W
58.20 m
1026562
71766
VOQ

Download Data

Hourly Data (August 2017)
Hourly Data Report for August 14, 2017
TIME
LST
Temp Definition
°C
Dew Point Definition
°C
Rel Hum Definition
%
Precip. Amount Definition
mm

Wind Dir Definition
10's deg

Wind Spd Definition
km/h
Visibility Definition
km
Stn Press Definition
kPa
Hmdx Definition


Wind Chill Definition


Weather Definition


00:00 15.6 10.5 72 0.0 28 4   100.96     LegendNANA
01:00 15.4 10.0 70 0.0 30 8   100.94     LegendNANA
02:00 14.5 10.1 75 0.0 29 5   100.95     LegendNANA
03:00 13.5 9.4 76 0.0 27 5   100.93     LegendNANA
04:00 12.8 9.4 80 0.0 28 6   100.91     LegendNANA
05:00 11.2 9.3 88 0.0 26 4   100.92     LegendNANA
06:00 12.0 9.7 86 0.0 26 3   100.92     LegendNANA
07:00 14.5 9.7 73 0.0 28 5   100.92     LegendNANA
08:00 15.2 9.5 69 0.0 31 6   100.94     LegendNANA
09:00 16.0 9.4 65 0.0 33 8   100.96     LegendNANA
10:00 16.6 10.2 66 0.0 30 10   100.94     LegendNANA
11:00 17.6 8.8 56 0.0 35 8   100.92     LegendNANA
12:00 18.0 8.8 55 0.0 1 7   100.88     LegendNANA
13:00 18.2 9.9 58 0.0 5 6   100.86     LegendNANA
14:00 19.3 10.5 57 0.0 6 7   100.82     LegendNANA
15:00 20.1 10.5 54 0.0 5 6   100.76     LegendNANA
16:00 19.9 9.4 51 0.0 7 6   100.70     LegendNANA
17:00 20.2 10.8 55 0.0 6 5   100.68     LegendNANA
18:00 18.5 11.4 64 0.0 2 3   100.68     LegendNANA
19:00 17.5 11.6 69 0.0 33 6   100.68     LegendNANA
20:00 16.7 11.7 72 0.0 28 2   100.68     LegendNANA
21:00 15.8 12.0 78 0.0 24 4   100.67     LegendNANA
22:00 16.2 11.3 73 0.0 25 4   100.66     LegendNANA
23:00 15.5 11.7 78 0.0 27 3   100.65     LegendNANA

Notes on Data Quality.

Legend

  • E = Estimated
  • M = Missing
  • NA = Not Available*
  • [empty] = Indicates an unobserved value
Date modified: